Waarnemingen

Advertentie
Mijn weer
Elsenborn, België (6496): temperatuur & dauwpunt: 20.01.2020 10:00:00 - 26.01.2020 10:00:00 (CET)Elsenborn, België (6496): windsnelheid & windstoten: 20.01.2020 10:00:00 - 26.01.2020 10:00:00 (CET)Elsenborn, België (6496): windrichting: 20.01.2020 10:00:00 - 26.01.2020 10:00:00 (CET)Elsenborn, België (6496): luchtdruk: 20.01.2020 10:00:00 - 26.01.2020 10:00:00 (CET)Elsenborn, België (6496): zicht: 20.01.2020 10:00:00 - 26.01.2020 10:00:00 (CET)
Datum & Tijd tt [°C] td [°C] ff [km/u] ff [kn] fx [km/u] fx [kn] dd ppp [hPa] vv [km]
26.01.2020 10:00:00 1,5 1,5 4 2 - - N 1019,0 0,3
26.01.2020 09:00:00 1,6 1,6 8 4 18 10 ZW 1019,0 0,7
26.01.2020 08:00:00 1,9 1,7 4 2 7 4 N 1018,6 4,0
26.01.2020 07:00:00 2,5 2,2 4 2 - - N 1018,5 4,9
26.01.2020 06:00:00 1,2 1,2 4 2 7 4 N 1018,8 1,4
26.01.2020 05:00:00 1,2 1,2 4 2 7 4 - 1019,1 2,0
26.01.2020 04:00:00 1,2 1,2 4 2 - - N 1019,5 4,6
26.01.2020 03:00:00 -0,2 -0,2 2 1 7 4 - 1020,2 4,6
26.01.2020 02:00:00 -0,6 -0,6 4 2 7 4 N 1021,0 7
26.01.2020 01:00:00 -1,3 -1,4 4 2 - - N 1021,3 12
26.01.2020 00:00:00 -1,4 -1,7 4 2 4 2 N 1021,7 14
25.01.2020 23:00:00 -2,1 -2,1 4 2 4 2 N 1022,2 11
25.01.2020 22:00:00 -2,3 -2,2 2 1 - - - 1022,5 7
25.01.2020 21:00:00 -1,7 -1,8 4 2 4 2 N 1022,6 9
25.01.2020 20:00:00 -1,7 -1,7 4 2 4 2 N 1022,8 0,2
25.01.2020 19:00:00 -0,9 -0,9 4 2 - - N 1022,6 0,1
25.01.2020 18:00:00 -0,1 -0,1 4 2 7 4 N 1022,1 0,1
25.01.2020 17:00:00 1,5 1,5 4 2 11 6 N 1021,3 0,2
25.01.2020 16:00:00 2,5 2,5 7 4 - - WZW 1021,2 8
25.01.2020 15:00:00 2,4 2,4 4 2 7 4 N 1021,6 1,3
25.01.2020 14:00:00 1,2 1,2 7 4 11 6 WZW 1022,5 0,2
25.01.2020 13:00:00 1,1 1,1 7 4 - - ZZW 1023,2 0,4
25.01.2020 12:00:00 0,5 0,4 7 4 11 6 ZW 1023,7 0,3
25.01.2020 11:00:00 -0,1 -0,1 4 2 7 4 N 1023,7 0,2
25.01.2020 10:00:00 -0,4 -0,4 4 2 - - N 1023,5 0,2
25.01.2020 09:00:00 -0,5 -0,5 4 2 7 4 N 1023,2 0,2
25.01.2020 08:00:00 -0,2 -0,2 4 2 7 4 N 1022,7 0,2
25.01.2020 07:00:00 -0,3 -0,3 4 2 - - N 1022,6 0,1
25.01.2020 06:00:00 -0,5 -0,5 7 4 11 6 ZW 1022,7 0,2
25.01.2020 05:00:00 -2,6 -2,7 4 2 7 4 N 1023,3 0,4
25.01.2020 04:00:00 -4,2 -4,3 4 2 - - N 1024,0 5
25.01.2020 03:00:00 -3,9 -4,0 4 2 7 4 N 1024,2 0,3
25.01.2020 02:00:00 -3,8 -3,8 7 4 7 4 W 1024,2 0,9
25.01.2020 01:00:00 -3,9 -4,1 7 4 - - WZW 1024,5 3,1
25.01.2020 00:00:00 -3,6 -3,5 4 2 11 6 N 1024,5 1,0
24.01.2020 23:00:00 -3,2 -3,2 4 2 11 6 N 1024,5 0,4
24.01.2020 22:00:00 -2,8 -2,7 4 2 - - N 1024,7 0,3
24.01.2020 21:00:00 -2,5 -2,5 4 2 7 4 N 1024,7 0,2
24.01.2020 20:00:00 -2,1 -2,0 4 2 11 6 N 1024,4 0,3
24.01.2020 19:00:00 -2,2 -2,2 4 2 - - N 1024,2 0,2
24.01.2020 18:00:00 -2,0 -2,0 4 2 7 4 N 1023,7 0,6
24.01.2020 17:00:00 -1,7 -1,8 4 2 7 4 N 1023,8 0,4
24.01.2020 16:00:00 -1,0 -1,3 4 2 - - - 1023,7 1,8
24.01.2020 15:00:00 -0,4 -1,2 4 2 11 6 - 1023,7 6
24.01.2020 14:00:00 -1,1 -1,2 4 2 7 4 N 1024,0 2,7
24.01.2020 13:00:00 -1,4 -1,4 4 2 - - N 1024,7 3,5
24.01.2020 12:00:00 -2,6 -2,8 4 2 11 6 N 1025,5 2,7
24.01.2020 11:00:00 -3,2 -3,3 7 4 14 8 ZW 1025,7 2,9
24.01.2020 10:00:00 -3,5 -3,6 7 4 - - ZW 1025,5 1,7
24.01.2020 09:00:00 -3,8 -3,8 4 2 11 6 N 1025,7 1,1
24.01.2020 08:00:00 -3,7 -3,8 4 2 11 6 N 1025,5 0,4
24.01.2020 07:00:00 -3,7 -3,7 4 2 - - N 1025,5 0,6
24.01.2020 06:00:00 -3,7 -3,7 4 2 11 6 N 1025,5 0,2
24.01.2020 05:00:00 -3,5 -3,5 7 4 11 6 ZW 1025,9 0,8
24.01.2020 04:00:00 -3,5 -3,7 4 2 - - N 1026,0 1,2
24.01.2020 03:00:00 -3,3 -3,3 4 2 14 8 N 1026,7 0,6
24.01.2020 02:00:00 -3,1 -3,3 4 2 18 10 N 1027,0 1,0
24.01.2020 01:00:00 -3,5 -4,1 4 2 - - N 1027,7 1,6
24.01.2020 00:00:00 -3,9 -4,2 4 2 4 2 N 1027,7 10
23.01.2020 23:00:00 -3,3 -3,3 4 2 7 4 N 1028,0 0,3
23.01.2020 22:00:00 -2,6 -2,7 4 2 - - N 1028,2 2,2
23.01.2020 21:00:00 -2,8 -2,7 0 0 4 2 N 1028,2 18
23.01.2020 20:00:00 -2,3 -2,2 4 2 4 2 N 1028,4 1,2
23.01.2020 19:00:00 -1,8 -1,8 4 2 - - N 1028,7 0,1
23.01.2020 18:00:00 -0,7 -0,7 4 2 7 4 N 1028,7 0,3
23.01.2020 17:00:00 0,5 0,3 4 2 7 4 - 1028,5 7
23.01.2020 16:00:00 2,5 1,2 7 4 - - NO 1028,5 20
23.01.2020 15:00:00 3,3 1,5 4 2 11 6 N 1029,2 20
23.01.2020 14:00:00 2,6 1,0 11 6 11 6 W 1030,2 16
23.01.2020 13:00:00 4,3 3,0 4 2 - - N 1030,5 20
23.01.2020 12:00:00 0,9 0,9 7 4 14 8 O 1031,9 14
23.01.2020 11:00:00 -0,3 -0,3 7 4 14 8 O 1032,7 0,6
23.01.2020 10:00:00 -1,0 -0,9 7 4 - - OZO 1033,2 0,3
23.01.2020 09:00:00 -1,1 -1,1 7 4 14 8 OZO 1033,7 0,3
23.01.2020 08:00:00 -1,0 -0,9 7 4 14 8 O 1034,0 0,4
23.01.2020 07:00:00 -0,9 -0,9 11 6 - - O 1034,0 0,5
23.01.2020 06:00:00 -0,8 -0,8 7 4 14 8 ONO 1034,2 0,4
23.01.2020 05:00:00 -0,6 -0,6 4 2 14 8 N 1034,4 0,3
23.01.2020 04:00:00 -0,4 -0,4 4 2 - - N 1035,0 0,2
23.01.2020 03:00:00 0,1 0,1 11 6 22 12 O 1036,0 0,4
23.01.2020 02:00:00 0,6 0,4 11 6 25 14 O 1036,4 8
23.01.2020 01:00:00 1,1 0,8 11 6 - - O 1036,5 20
23.01.2020 00:00:00 1,0 1,0 7 4 14 8 O 1036,9 20
22.01.2020 23:00:00 0,8 0,7 7 4 22 12 ONO 1037,0 10
22.01.2020 22:00:00 0,8 0,8 7 4 - - ONO 1037,0 0,6
22.01.2020 21:00:00 1,1 1,1 11 6 18 10 ONO 1037,0 0,2
22.01.2020 20:00:00 1,1 1,1 7 4 22 12 ONO 1036,7 0,4
22.01.2020 19:00:00 1,2 1,2 11 6 - - ONO 1036,4 2,4
22.01.2020 18:00:00 1,2 1,1 9 5 22 12 O 1036,0 3,0
22.01.2020 17:00:00 1,0 0,9 11 6 18 10 ONO 1036,2 1,6
22.01.2020 16:00:00 1,5 1,3 7 4 - - NO 1035,9 2,4
22.01.2020 15:00:00 1,7 1,4 7 4 14 8 N 1036,0 4,5
22.01.2020 14:00:00 0,3 0,2 7 4 18 10 O 1036,7 16
22.01.2020 13:00:00 -1,2 -1,2 11 6 - - ONO 1037,5 0,3
22.01.2020 12:00:00 -2,2 -2,3 4 2 22 12 N 1038,0 7
22.01.2020 11:00:00 -2,5 -2,7 11 6 25 14 NO 1038,7 0,4
22.01.2020 10:00:00 -4,0 -5,8 4 2 - - N 1038,2 20
22.01.2020 09:00:00 -8,1 -9,3 4 2 7 4 N 1039,2 20
22.01.2020 08:00:00 -8,8 -10,2 4 2 7 4 N 1038,9 20
22.01.2020 07:00:00 -6,4 -7,8 4 2 - - N 1038,7 20
22.01.2020 06:00:00 -7,9 -9,2 4 2 7 4 N 1039,5 20
22.01.2020 05:00:00 -7,4 -8,5 4 2 7 4 N 1039,5 20
22.01.2020 04:00:00 -7,2 -8,2 4 2 - - N 1040,0 20
22.01.2020 03:00:00 -7,6 -8,5 4 2 7 4 N 1040,5 20
22.01.2020 02:00:00 -6,6 -7,6 4 2 4 2 N 1040,4 20
22.01.2020 01:00:00 -6,6 -7,3 4 2 - - N 1040,5 20
22.01.2020 00:00:00 -6,0 -6,7 4 2 7 4 N 1040,9 19
21.01.2020 23:00:00 -5,1 -5,5 4 2 7 4 N 1041,4 18
21.01.2020 22:00:00 -4,8 -5,5 4 2 - - N 1041,4 17
21.01.2020 21:00:00 -3,8 -4,4 4 2 7 4 N 1041,5 18
21.01.2020 20:00:00 -3,0 -4,3 4 2 7 4 N 1041,2 20
21.01.2020 19:00:00 -1,4 -3,5 4 2 - - N 1040,9 20
21.01.2020 18:00:00 -1,3 -3,3 4 2 11 6 N 1041,2 20
21.01.2020 17:00:00 1,2 -2,5 7 4 14 8 NO 1040,9 20
21.01.2020 16:00:00 3,7 -2,5 7 4 - - NO 1040,2 20
21.01.2020 15:00:00 4,9 -3,5 7 4 7 4 NO 1040,2 20
21.01.2020 14:00:00 4,4 -2,6 4 2 7 4 N 1040,7 20
21.01.2020 13:00:00 3,3 -2,6 4 2 - - N 1041,5 20
21.01.2020 12:00:00 3,4 -2,4 4 2 4 2 N 1042,4 20
21.01.2020 11:00:00 -2,0 -2,3 4 2 4 2 N 1044,2 20
21.01.2020 10:00:00 -4,6 -4,9 4 2 - - N 1044,9 20
21.01.2020 09:00:00 -7,8 -8,6 4 2 4 2 N 1045,7 19
21.01.2020 08:00:00 -7,8 -8,6 4 2 4 2 N 1045,5 20
21.01.2020 07:00:00 -7,3 -8,1 0 0 - - N 1045,2 20
21.01.2020 06:00:00 -7,4 -8,3 0 0 4 2 N 1045,5 20
21.01.2020 05:00:00 -6,5 -7,0 4 2 4 2 N 1045,7 17
21.01.2020 04:00:00 -6,2 -6,8 4 2 - - N 1045,9 19
21.01.2020 03:00:00 -6,1 -6,6 4 2 4 2 N 1046,5 20
21.01.2020 02:00:00 -5,4 -6,1 4 2 4 2 N 1046,7 20
21.01.2020 01:00:00 -4,4 -4,7 4 2 - - N 1046,9 16
21.01.2020 00:00:00 -4,3 -4,6 4 2 7 4 N 1047,2 19
20.01.2020 23:00:00 -3,3 -3,7 4 2 7 4 N 1047,0 14
20.01.2020 22:00:00 -2,7 -3,1 4 2 - - N 1047,2 13
20.01.2020 21:00:00 -2,9 -3,4 4 2 7 4 N 1047,2 13
20.01.2020 20:00:00 -2,3 -2,8 4 2 7 4 N 1047,0 10
20.01.2020 19:00:00 -2,0 -2,4 4 2 - - N 1047,2 11
20.01.2020 18:00:00 -0,9 -2,1 7 4 14 8 ONO 1047,0 19
20.01.2020 17:00:00 -0,1 -1,6 4 2 14 8 N 1047,0 20
20.01.2020 16:00:00 1,0 -1,5 11 6 - - ONO 1047,0 10
20.01.2020 15:00:00 1,8 -1,4 11 6 18 10 O 1047,4 20
20.01.2020 14:00:00 1,3 -0,9 11 6 22 12 ONO 1048,0 19
20.01.2020 13:00:00 1,5 -0,9 11 6 - - O 1048,0 20
20.01.2020 12:00:00 1,5 -0,6 7 4 22 12 ONO 1048,7 20
20.01.2020 11:00:00 1,2 0,2 7 4 11 6 N 1049,0 18
20.01.2020 10:00:00 0,2 0,0 4 2 - - N 1048,7 7

tt = temperatuur
td = dauwpunt
ff = windsnelheid
fx = windstoten
dd = windrichting
ppp = luchtdruk
vv = zicht

Weerstations in de omgeving